Semi-marathon de Herve
Semi-marathon de Herve 24/10/2015 - 21 km
Mise à jour le : 24/10/2015 à 17:01
Classement définitif, aucune correction possible
Place Nom Prénom Dossard Temps Vitesse Allure Place. Cat. Catégorie
1 DETHIER JULIEN 911 1:13:33 17,13 3:30 1 Séniors
2 ROUSSEAU ROGER 815 1:15:11 16,76 3:34 1 Vétérans 1
3 MARQUET JORDAN 606 1:20:20 15,68 3:49 2 Séniors
4 DARIMONT CHRISTOPHER 196 1:20:53 15,58 3:51 3 Séniors
5 HERZET FREDERICK 4 1:21:27 15,47 3:52 4 Séniors
6 TILKIN JULIEN 816 1:22:11 15,33 3:54 5 Séniors
7 WEBER CLEMENT 934 1:23:05 15,17 3:57 6 Séniors
8 GELDOF BARTHELEMY 808 1:23:16 15,13 3:57 7 Séniors
9 PAQUES THIERRY 966 1:23:21 15,12 3:58 2 Vétérans 1
10 SCHOLZEN CHRISTOPHE 596 1:23:41 15,06 3:59 8 Séniors
11 HACKENS YANNICK 426 1:23:53 15,02 3:59 3 Vétérans 1
12 GUISSART ALAIN 1017 1:24:19 14,94 4:00 4 Vétérans 1
13 LOPEZ-NAVA DIDIER 591 1:24:24 14,93 4:01 5 Vétérans 1
14 DHEUR MAXIME 933 1:24:40 14,88 4:01 9 Séniors
15 HEINS FREDERIC 916 1:24:45 14,86 4:02 10 Séniors
16 REYNERS PATRICK 874 1:24:53 14,84 4:02 1 Vétérans 2
17 ESTEBEZ ANDRE 335 1:25:15 14,78 4:03 6 Vétérans 1
18 DEMIRKAZAN MIKAIL 1002 1:25:23 14,76 4:03 11 Séniors
19 DESARCY ROBIN 955 1:25:56 14,66 4:05 1 Espoirs Garçons
20 BERGENHUIZEN EDDY 74 1:26:28 14,57 4:07 7 Vétérans 1
21 COLIN FRANCOIS 879 1:26:52 14,50 4:08 12 Séniors
22 DUBOIS SAMUEL 246 1:26:57 14,49 4:08 13 Séniors
23 COUTREZ ALEXANDRE 1045 1:27:07 14,46 4:08 14 Séniors
24 GERON DAVID 993 1:27:07 14,46 4:08 8 Vétérans 1
25 SNACKERS VALENTIN 917 1:27:07 14,46 4:08 15 Séniors
26 JACOB-PAQUAY ERIC 373 1:27:23 14,42 4:09 9 Vétérans 1
27 ANDRES GABY 44 1:27:49 14,35 4:10 1 Ainées 1
28 DEGUELDRE JEAN LOUIS 830 1:27:52 14,34 4:11 2 Vétérans 2
29 BRAGARD JEAN-FRANCOIS 110 1:27:54 14,33 4:11 16 Séniors
30 GABRIEL THOMAS 963 1:28:12 14,28 4:12 17 Séniors
31 BAGUETTE DENIS 55 1:28:24 14,25 4:12 18 Séniors
32 LOURTHE THIBAUT 995 1:28:37 14,22 4:13 19 Séniors
33 HEUSSCHEN MARC 814 1:28:43 14,20 4:13 3 Vétérans 2
34 DORTHU OLIVIER 957 1:28:54 14,17 4:14 10 Vétérans 1
35 SANGIOVANNI GIAN-CARLO 592 1:28:58 14,16 4:14 11 Vétérans 1
36 GODELAINE STEPHANE 323 1:29:00 14,16 4:14 20 Séniors
37 LEGROS FRANCIS 431 1:29:07 14,14 4:14 12 Vétérans 1
38 FRACASSI BRUNO 293 1:29:33 14,07 4:15 13 Vétérans 1
39 WOOLF ALAN 695 1:29:46 14,03 4:16 4 Vétérans 2
40 SCHOONBROODT JO 802 1:29:50 14,03 4:16 1 Vétérans 3
41 VAN BRUMMELEN CLEMENT 922 1:30:02 13,99 4:17 2 Espoirs Garçons
42 LEJEUNE SYLVAIN 876 1:30:15 13,96 4:17 14 Vétérans 1
43 IPACH PIERRE 892 1:30:21 13,94 4:18 15 Vétérans 1
44 DEWAIIEF PASCAL 1052 1:30:34 13,91 4:18 16 Vétérans 1
45 JACQUINET ERIC 954 1:30:39 13,90 4:19 21 Séniors
46 VAN HAUTEN KEVIN 650 1:30:47 13,88 4:19 22 Séniors
47 JOSKIN DAMIEN 390 1:31:18 13,80 4:20 23 Séniors
48 ESTE ROMAIN 1026 1:31:18 13,80 4:20 24 Séniors
49 TOUSSAINT PIERRE 1016 1:31:19 13,80 4:20 25 Séniors
50 GONEZ XAVIER 974 1:31:28 13,77 4:21 17 Vétérans 1
51 CABAY JEAN-MARC 1000 1:31:28 13,77 4:21 18 Vétérans 1
52 GOMZE MICHEL 272 1:31:37 13,75 4:21 19 Vétérans 1
53 THIRION MARC 834 1:31:41 13,74 4:21 20 Vétérans 1
54 BREE MICHEL 1014 1:31:46 13,73 4:22 5 Vétérans 2
55 PATUREAU ERIC 1013 1:31:58 13,70 4:22 21 Vétérans 1
56 COUNE BENOIT 938 1:32:02 13,69 4:22 22 Vétérans 1
57 NAWYN BENJAMIN 5 1:32:02 13,69 4:22 23 Vétérans 1
58 DEBIOLLE FREDERIC 206 1:32:05 13,68 4:23 26 Séniors
59 SIEBENBOUR MICHEL 878 1:32:08 13,67 4:23 24 Vétérans 1
60 BECKERS BENOIT 12 1:32:15 13,66 4:23 25 Vétérans 1
61 DAMOISEAU THIERRY 168 1:32:22 13,64 4:23 26 Vétérans 1
62 PIRET GAUTHIER 918 1:32:31 13,62 4:24 27 Séniors
63 PIRON DOMINIQUE 819 1:32:50 13,57 4:25 28 Séniors
64 GYSEN GERALD 962 1:33:01 13,55 4:25 29 Séniors
65 LECLERCQ JORDAN 429 1:33:05 13,54 4:25 30 Séniors
66 DELHOUGNE CEDRIC 839 1:33:12 13,52 4:26 31 Séniors
67 LAOUREUX LAURENT 419 1:33:12 13,52 4:26 27 Vétérans 1
68 HENRARD GUILLAUME 1041 1:33:17 13,51 4:26 32 Séniors
69 JOASSART MARTIN 386 1:33:20 13,50 4:26 33 Séniors
70 BROUWIER PIERRE 121 1:33:31 13,47 4:27 2 Vétérans 3
71 DANIELS JEAN-MARC 846 1:33:39 13,45 4:27 28 Vétérans 1
72 JOURDAN GUY 503 1:33:43 13,44 4:27 34 Séniors
73 DOUVEN THOMAS 245 1:33:43 13,44 4:27 35 Séniors
74 WAUTERS FREDERIC 929 1:33:51 13,43 4:28 29 Vétérans 1
75 BAUTE BENOIT 841 1:34:01 13,40 4:28 30 Vétérans 1
76 DECHAMPS XAVIER 888 1:34:02 13,40 4:28 31 Vétérans 1
77 PIERRON CATHERINE 952 1:34:05 13,39 4:28 1 Dames
78 PIERRON OLIVIER 953 1:34:05 13,39 4:28 32 Vétérans 1
79 LÉTÉ PASCAL 908 1:34:30 13,33 4:30 6 Vétérans 2
80 NIELSEN HENDRIK 881 1:34:35 13,32 4:30 7 Vétérans 2
81 XHONNEUX RENAUD 969 1:34:49 13,29 4:30 36 Séniors
82 SCHMETZ BERNARD 877 1:35:02 13,26 4:31 8 Vétérans 2
83 JASPAR CHRISTIAN 383 1:35:45 13,16 4:33 3 Vétérans 3
84 TEN HAAF JENNY 935 1:35:59 13,13 4:34 2 Ainées 1
85 D'AFFNAY JEAN-FRANCOIS 162 1:36:24 13,07 4:35 37 Séniors
86 LEMAIRE GUILLAUME 441 1:36:24 13,07 4:35 38 Séniors
87 DEJARDIN FREDERIC 1011 1:36:41 13,03 4:36 33 Vétérans 1
88 SCHAUS DIETER 903 1:36:45 13,02 4:36 34 Vétérans 1
89 COLLINS BRENDAV 951 1:36:46 13,02 4:36 39 Séniors
90 CHARLIER PIERRE 919 1:36:58 12,99 4:37 35 Vétérans 1
91 LEMARCHAL VINCENT 921 1:37:11 12,96 4:37 40 Séniors
92 JOSKIN PHILIPPE 1020 1:37:24 12,93 4:38 36 Vétérans 1
93 MILAN DANIELE 843 1:37:32 12,92 4:38 37 Vétérans 1
94 OFFERMANN NATHALIE 981 1:37:38 12,90 4:38 2 Dames
95 LAMBERTZ LUC 859 1:37:54 12,87 4:39 9 Vétérans 2
96 MASSIN JEAN-PHILIPPE 484 1:38:09 12,84 4:40 41 Séniors
97 TEN HAAF ROLAND 936 1:38:11 12,83 4:40 38 Vétérans 1
98 WILLEMS ROBERT 826 1:38:13 12,83 4:40 10 Vétérans 2
99 RANDAXHE ARNAUD 707 1:38:26 12,80 4:41 3 Espoirs Garçons
100 BEN RAZEK AYACHI 1008 1:38:31 12,79 4:41 11 Vétérans 2
101 LEHAEN PIERRE-OLIVIER 436 1:38:40 12,77 4:41 39 Vétérans 1
102 MARTIN CEDRIC 904 1:38:41 12,77 4:41 42 Séniors
103 DENDAL DIDIER 809 1:38:50 12,75 4:42 12 Vétérans 2
104 BERTRAND YVES 889 1:38:54 12,74 4:42 40 Vétérans 1
105 ROOMANS CHRISTIAN 581 1:39:08 12,71 4:43 13 Vétérans 2
106 RASSART MARC 837 1:39:11 12,70 4:43 41 Vétérans 1
107 WINANDY GUY 858 1:39:15 12,69 4:43 14 Vétérans 2
108 DEGUELDRE VINCENT 186 1:39:22 12,68 4:43 43 Séniors
109 BILLEN JEAN 84 1:39:27 12,67 4:44 44 Séniors
110 DETHIER MARC 960 1:39:31 12,66 4:44 15 Vétérans 2
111 PONS ANNE 550 1:39:35 12,65 4:44 1 Ainées 2
112 BOUMRAH ACHMED 999 1:39:38 12,65 4:44 45 Séniors
113 LENSSEN PIERRE 996 1:39:39 12,64 4:44 46 Séniors
114 LEFEBVRE LUDWIG 543 1:39:41 12,64 4:44 47 Séniors
115 WALRAFF WALLY 678 1:39:42 12,64 4:44 42 Vétérans 1
116 KNOCKART PASCAL 968 1:39:44 12,63 4:44 43 Vétérans 1
117 DESSOUROUX JEAN 227 1:39:49 12,62 4:45 4 Vétérans 3
118 STAS SOPHIE 712 1:39:52 12,62 4:45 3 Ainées 1
119 TODDE VINCENT 1046 1:39:57 12,60 4:45 48 Séniors
120 DELNOY RENE PIERRE 1010 1:40:07 12,58 4:46 49 Séniors
121 GUCKEL IRWIN 1012 1:40:15 12,57 4:46 44 Vétérans 1
122 JENNES AURELIEN 975 1:40:24 12,55 4:46 50 Séniors
123 DEMAZY STEVE 915 1:40:31 12,53 4:47 45 Vétérans 1
124 HENSEN STEPHANE 943 1:40:31 12,53 4:47 46 Vétérans 1
125 BILQUIN BENOIT 880 1:40:31 12,53 4:47 51 Séniors
126 CRAHAY DAVID 870 1:40:39 12,52 4:47 52 Séniors
127 MARCHIONE ROSARIO 817 1:40:45 12,50 4:47 16 Vétérans 2
128 ROORDA CHRISTOPHE 852 1:40:49 12,50 4:48 53 Séniors
129 GILIS DIDIER 979 1:41:08 12,46 4:48 17 Vétérans 2
130 DELVAUX GARY 208 1:41:11 12,45 4:49 54 Séniors
131 LAHAYE ADRIEN 940 1:41:14 12,45 4:49 55 Séniors
132 LEGRAND STEVE 972 1:41:17 12,44 4:49 56 Séniors
133 BOVY CHRISTOPHE 847 1:41:19 12,44 4:49 47 Vétérans 1
134 HEUSSCHEN DOMINIQUE 359 1:41:22 12,43 4:49 18 Vétérans 2
135 MULLER FRANCOISE 902 1:41:53 12,37 4:51 4 Ainées 1
136 POHL DIDIER 702 1:41:53 12,37 4:51 19 Vétérans 2
137 RITROVATO SYLVAIN 575 1:41:59 12,35 4:51 48 Vétérans 1
138 DAMBLON PATRICK 167 1:42:07 12,34 4:51 49 Vétérans 1
139 DEJALLE GAETAN 851 1:42:19 12,31 4:52 57 Séniors
140 KOUMANS FILIP 907 1:42:34 12,28 4:53 50 Vétérans 1
141 MARECHAL DAVID 479 1:42:34 12,28 4:53 58 Séniors
142 HUTSCHEMACKERS BERNARD 369 1:42:39 12,27 4:53 51 Vétérans 1
143 D'HAENE OLIVIER 235 1:42:51 12,25 4:53 59 Séniors
144 THIELEN ALAIN 630 1:43:05 12,22 4:54 52 Vétérans 1
145 SEYS YVES 1031 1:43:07 12,22 4:54 53 Vétérans 1
146 FRANCOTTE PIERRE 296 1:43:11 12,21 4:54 60 Séniors
147 DEMOULIN ANNE-SOPHIE 251 1:43:13 12,21 4:54 5 Ainées 1
148 MBEMBA PIERRE 840 1:43:15 12,20 4:55 54 Vétérans 1
149 TASSIN ARMAND 831 1:43:23 12,19 4:55 20 Vétérans 2
150 IANNIELLO TOMMY 941 1:43:25 12,18 4:55 61 Séniors
151 LAZZARI TONY 923 1:43:34 12,16 4:55 21 Vétérans 2
152 DUMONT RAPHAEL 333 1:43:34 12,16 4:55 62 Séniors
153 LEMAIRE MICHEL 1048 1:43:36 12,16 4:56 22 Vétérans 2
154 GROSJEAN ANTHONY 949 1:43:37 12,16 4:56 63 Séniors
155 PIROSON CHRISTIAN 544 1:43:39 12,16 4:56 55 Vétérans 1
156 PRZYBYLSKI ERIC 828 1:43:44 12,15 4:56 56 Vétérans 1
157 KEIL YVES 509 1:43:46 12,14 4:56 57 Vétérans 1
158 CELIS PAUL 924 1:43:48 12,14 4:56 5 Vétérans 3
159 HENON FLORENCE 931 1:43:56 12,12 4:56 6 Ainées 1
160 COLSON CHARLES 1021 1:43:58 12,12 4:57 6 Vétérans 3
161 ROYEN CEDRIC 973 1:44:00 12,11 4:57 64 Séniors
162 DOSSERAY ROGER 244 1:44:04 12,11 4:57 7 Vétérans 3
163 JUNGBLUTH RAYMOND 396 1:44:04 12,11 4:57 8 Vétérans 3
164 HENON PHILIPPE 932 1:44:14 12,09 4:57 58 Vétérans 1
165 VANDUREN STEFAN 861 1:44:16 12,08 4:57 23 Vétérans 2
166 GREGOIRE MARIE 1051 1:44:24 12,07 4:58 3 Dames
167 GOLSAR PASCAL 895 1:44:27 12,06 4:58 59 Vétérans 1
168 DELHEZ CLAUDE 1037 1:44:33 12,05 4:58 24 Vétérans 2
169 ROLLON STEPHANE 1003 1:44:47 12,02 4:59 65 Séniors
170 HENROTTE FRÉDÉRIC 1042 1:45:13 11,97 5:00 60 Vétérans 1
171 SCHOONBROODT MANUEL 597 1:45:17 11,97 5:00 66 Séniors
172 DELIEGE ROBERT 812 1:45:18 11,96 5:00 9 Vétérans 3
173 COOSEMANS MARIE 176 1:45:21 11,96 5:01 1 Espoirs Filles
174 COOSEMANS EMILE 175 1:45:23 11,96 5:01 10 Vétérans 3
175 GRUMIAUX THIERRY 883 1:45:25 11,95 5:01 61 Vétérans 1
176 SOMJA ANNE MICHELE 982 1:45:32 11,94 5:01 7 Ainées 1
177 SNACKERS FRANCIS 983 1:45:32 11,94 5:01 25 Vétérans 2
178 STASSEN BENJAMIN 967 1:45:32 11,94 5:01 67 Séniors
179 BRAGARD PIERRE ALEXANDRE 1019 1:45:46 11,91 5:02 68 Séniors
180 ARCHAMBEAU ROGER 827 1:45:50 11,91 5:02 11 Vétérans 3
181 POLIS GREGORY 549 1:45:55 11,89 5:02 69 Séniors
182 KEYDENER ARNAUD 403 1:46:09 11,87 5:03 70 Séniors
183 GRZESINSKI BERNARD 829 1:46:22 11,85 5:03 62 Vétérans 1
184 ERNST SAMUEL 867 1:46:27 11,84 5:04 71 Séniors
185 NOIRHOMME PIERRE 667 1:46:36 11,82 5:04 72 Séniors
186 FRANCE MICHEL 294 1:46:59 11,78 5:05 63 Vétérans 1
187 GEROMBOUX BERTRAND 363 1:47:04 11,77 5:05 73 Séniors
188 CARABIN MARTINE 131 1:47:06 11,76 5:06 2 Ainées 2
189 BERTRAND DOMINIQUE 517 1:47:07 11,76 5:06 26 Vétérans 2
190 MICHEL JEAN MARC 980 1:47:09 11,76 5:06 27 Vétérans 2
191 HEUSSCHEN CHRISTINE 920 1:47:11 11,75 5:06 3 Ainées 2
192 VON AGRIS CHRISTA 835 1:47:18 11,74 5:06 4 Ainées 2
193 STEFFENS BENOIT 749 1:47:20 11,74 5:06 74 Séniors
194 BIERLY CHRISTOPHE 1001 1:47:25 11,73 5:06 64 Vétérans 1
195 BONHEMME LAURENCE 1050 1:47:27 11,73 5:07 8 Ainées 1
196 FASSIN JEAN-FRANCOIS 277 1:47:38 11,70 5:07 75 Séniors
197 CHARLIER ALEXANDRE 137 1:47:41 11,70 5:07 76 Séniors
198 LEROY REGIS 958 1:47:48 11,69 5:08 4 Espoirs Garçons
199 WIERTZ ARNAUD 779 1:47:50 11,68 5:08 77 Séniors
200 BRAGARD JEAN MICHEL 857 1:47:51 11,68 5:08 28 Vétérans 2
201 MAYENCE JEAN CHRISTOPHE 1053 1:47:53 11,68 5:08 65 Vétérans 1
202 DONNEAU PIERRE 315 1:47:55 11,67 5:08 78 Séniors
203 NAQUIN CHLOE 928 1:48:04 11,66 5:08 4 Dames
204 FLAMAND MICHAEL 925 1:48:07 11,65 5:08 79 Séniors
205 LORQUET SARAH 462 1:48:09 11,65 5:09 5 Dames
206 WOUTERS CATHERINE 914 1:48:16 11,64 5:09 5 Ainées 2
207 HERMANS MARC 905 1:48:45 11,59 5:10 29 Vétérans 2
208 DEVILLE MICHEL 234 1:49:03 11,55 5:11 30 Vétérans 2
209 HENROTTE THIERRY 1027 1:49:06 11,55 5:11 66 Vétérans 1
210 FISCHER RAPHAEL 342 1:49:24 11,52 5:12 80 Séniors
211 CUPERS PHILIPPE 159 1:49:34 11,50 5:13 67 Vétérans 1
212 REYNAERTS STEVE 572 1:49:37 11,49 5:13 81 Séniors
213 CAHAY FABRICE 991 1:49:41 11,49 5:13 82 Séniors
214 SCHMETZ ROLAND 961 1:49:44 11,48 5:13 68 Vétérans 1
215 GILLET GREGORY 1023 1:49:50 11,47 5:13 83 Séniors
216 SOMJA VICTOR 998 1:49:50 11,47 5:13 31 Vétérans 2
217 JOWA PIERRE 392 1:49:53 11,47 5:13 32 Vétérans 2
218 MEYS CLAUDE 616 1:49:55 11,46 5:14 69 Vétérans 1
219 DELIEGE MALORY 970 1:49:56 11,46 5:14 9 Ainées 1
220 WISLEZ FREDDY 694 1:50:29 11,40 5:15 12 Vétérans 3
221 VOSS JEAN-LOUIS 673 1:50:33 11,40 5:15 13 Vétérans 3
222 GERARD CAROLE 945 1:50:36 11,39 5:16 10 Ainées 1
223 DOBBELSTEIN JACKY 1009 1:50:39 11,39 5:16 33 Vétérans 2
224 CRUTZEN CLAUDY 884 1:50:43 11,38 5:16 34 Vétérans 2
225 MOYSE EVELYNE 810 1:51:14 11,33 5:17 6 Dames
226 HADJIDIMITRIOU STELIO 869 1:51:17 11,32 5:17 35 Vétérans 2
227 LHOMME SEBASTIEN 926 1:51:44 11,28 5:19 84 Séniors
228 LESECQUE STEPHANE 1024 1:52:06 11,24 5:20 36 Vétérans 2
229 KERF PATRICK 400 1:52:06 11,24 5:20 37 Vétérans 2
230 ROBERT ETIENNE 1035 1:52:24 11,21 5:21 38 Vétérans 2
231 DONY PHILIPPE 273 1:52:31 11,20 5:21 70 Vétérans 1
232 HARDY MARC 437 1:52:34 11,19 5:21 71 Vétérans 1
233 CIARNIELLO FABRICE 885 1:53:04 11,14 5:23 85 Séniors
234 PIEDBOEUF BERTRAND 1007 1:53:15 11,12 5:23 86 Séniors
235 LATINIS CINDY 1049 1:53:23 11,11 5:23 7 Dames
236 MENGONI LUIGI 997 1:53:26 11,11 5:24 72 Vétérans 1
237 LAMBERT CARINE 414 1:53:32 11,10 5:24 11 Ainées 1
238 VALOIR FRANCOIS 646 1:53:39 11,09 5:24 87 Séniors
239 ROBERT PETER 942 1:53:39 11,09 5:24 73 Vétérans 1
240 PERROT EMILE 871 1:53:48 11,07 5:25 74 Vétérans 1
241 FOSSOUL FREDERIQUE 950 1:53:51 11,07 5:25 8 Dames
242 LENNERTZ RENAUD 1032 1:53:56 11,06 5:25 88 Séniors
243 BIDOUL GIL 75 1:53:59 11,05 5:25 89 Séniors
244 SCHATTENBERG ANTHONY 977 1:54:12 11,03 5:26 90 Séniors
245 MEESEN ARLETTE 836 1:54:15 11,03 5:26 6 Ainées 2
246 FRANCOIS ISE 976 1:54:17 11,02 5:26 9 Dames
247 HANSROUL MICHAEL 340 1:54:19 11,02 5:26 91 Séniors
248 DEMONCEAU RACHEL 213 1:54:21 11,02 5:26 12 Ainées 1
249 DETRY OLIVIER 233 1:54:23 11,01 5:26 75 Vétérans 1
250 THISSEN MICHEL 989 1:54:26 11,01 5:26 39 Vétérans 2
251 SCHLECK CHRISTOPHE 987 1:54:30 11,00 5:27 92 Séniors
252 HEYWOOD BRYON 894 1:54:34 11,00 5:27 14 Vétérans 3
253 DANPHIN CEDRIC 899 1:54:41 10,99 5:27 76 Vétérans 1
254 HALLEUX VINCENT 994 1:54:51 10,97 5:28 77 Vétérans 1
255 CIULLA JOSEPH 856 1:54:53 10,97 5:28 40 Vétérans 2
256 PALUMBO PINO 855 1:54:54 10,97 5:28 41 Vétérans 2
257 DELMOITIEZ STEPHANE 1006 1:55:05 10,95 5:28 78 Vétérans 1
258 ZNIDARSIC JOELLE 990 1:55:11 10,94 5:29 7 Ainées 2
259 TASSET CHRISTIAN 626 1:55:27 10,91 5:29 42 Vétérans 2
260 DEGEY RAPHAEL 825 1:55:28 10,91 5:29 79 Vétérans 1
261 DENOOZ AXEL 868 1:55:34 10,90 5:30 80 Vétérans 1
262 KEDZIERSKI MICHEL 845 1:55:40 10,89 5:30 81 Vétérans 1
263 RENNE GILLET 1025 1:55:56 10,87 5:31 93 Séniors
264 RADERMECKER JULIE 726 1:55:58 10,86 5:31 10 Dames
265 LINCE GUY 452 1:56:06 10,85 5:31 43 Vétérans 2
266 ERNST ANDRE 265 1:56:22 10,83 5:32 44 Vétérans 2
267 FASSIN BERENGER 1030 1:56:30 10,81 5:32 94 Séniors
268 MAGNETTE YVES 470 1:56:52 10,78 5:33 45 Vétérans 2
269 PIRLOT BERNARD 541 1:57:04 10,76 5:34 95 Séniors
270 SCHREURS BERNARD 600 1:57:07 10,76 5:34 96 Séniors
271 RENNOTTE RAPHAEL 715 1:57:12 10,75 5:34 97 Séniors
272 DI GREGORIO CLAUDIO 891 1:57:15 10,75 5:35 82 Vétérans 1
273 NAHON SYLVIE 516 1:57:25 10,73 5:35 8 Ainées 2
274 JOWAY ERIC 393 1:57:25 10,73 5:35 46 Vétérans 2
275 LAMY STEPHANIE 416 1:57:25 10,73 5:35 13 Ainées 1
276 SOHY DELPHINE 850 1:57:25 10,73 5:35 14 Ainées 1
277 SOMJA PHILIPPE 1005 1:57:27 10,73 5:35 47 Vétérans 2
278 SPRONCK CHRISTIAN 1043 1:57:29 10,72 5:35 48 Vétérans 2
279 MARGUINIO DANY 803 1:57:39 10,71 5:36 1 Ainées 3
280 RAMAKERS DOMINIQUE 559 1:57:48 10,70 5:36 9 Ainées 2
281 VLAEMMINCK PASCAL 848 1:57:52 10,69 5:36 49 Vétérans 2
282 CORMAN PASCAL 1033 1:58:05 10,67 5:37 98 Séniors
283 DEMANDT PIETER 1047 1:58:14 10,66 5:37 99 Séniors
284 LENS ANNE SOPHIE 1054 1:58:23 10,64 5:38 15 Ainées 1
285 HOCK MICHAEL 468 1:58:37 10,62 5:38 100 Séniors
286 REUCHAMPS REGINE 571 1:58:46 10,61 5:39 10 Ainées 2
287 RAHIER MURIEL 1015 1:58:52 10,60 5:39 16 Ainées 1
288 GINGRAT PIERRE 807 1:58:55 10,59 5:39 1 Vétérans 4
289 DE MOOR MAXIME 986 1:58:58 10,59 5:39 101 Séniors
290 COLSON MARINE 1022 1:59:03 10,58 5:40 11 Dames
291 VANDEGAAR TONY 655 1:59:05 10,58 5:40 15 Vétérans 3
292 ISERENTANT CARINE 483 1:59:08 10,58 5:40 11 Ainées 2
293 BINET ALEXANDRE 886 1:59:22 10,56 5:41 83 Vétérans 1
294 DEFOURNY JACK 864 1:59:24 10,55 5:41 50 Vétérans 2
295 RAMACLE CEDRIC 896 1:59:39 10,53 5:41 102 Séniors
296 LIBERT GAELLE 1038 1:59:42 10,53 5:42 17 Ainées 1
297 MASSART PASCAL 956 1:59:48 10,52 5:42 84 Vétérans 1
298 DATOLI CARLO 849 1:59:52 10,51 5:42 51 Vétérans 2
299 LELEUX CHRISTIAN 821 2:00:13 10,48 5:43 103 Séniors
300 CABNOL CECILE 824 2:00:19 10,47 5:43 18 Ainées 1
301 CARLIER BENOIT 133 2:00:24 10,46 5:44 85 Vétérans 1
302 DEVILLE YVES 913 2:00:26 10,46 5:44 86 Vétérans 1
303 SCHOONBROODT MICHEL 930 2:00:27 10,46 5:44 87 Vétérans 1
304 VANAUBEL MARILYN 765 2:00:28 10,46 5:44 12 Dames
305 BEAUWENS FLORENCE 992 2:00:52 10,42 5:45 13 Dames
306 BUSCICCHIO MICKAEL 866 2:00:55 10,42 5:45 104 Séniors
307 JACQUEMOTTE LUDOVIC 375 2:00:58 10,41 5:45 105 Séniors
308 FETTWEIS THIERRY 281 2:01:39 10,36 5:47 52 Vétérans 2
309 COUMONT SYLVIANE 179 2:01:47 10,35 5:47 12 Ainées 2
310 BONIVER FRÉDÉRIC 854 2:01:53 10,34 5:48 88 Vétérans 1
311 COMPOS BRAZO RAPHAEL 1028 2:02:13 10,31 5:49 53 Vétérans 2
312 CAMPOS ANTONIO 1029 2:02:26 10,29 5:49 54 Vétérans 2
313 ABAD LAMAS PATRICIA 37 2:02:36 10,28 5:50 13 Ainées 2
314 GOHY SEVERINE 988 2:02:42 10,27 5:50 19 Ainées 1
315 HOMBURG GEOFFREY 471 2:02:47 10,26 5:50 106 Séniors
316 DUMOULIN JEAN-LUC 248 2:02:57 10,25 5:51 89 Vétérans 1
317 BELIEN JAN 811 2:03:07 10,23 5:51 55 Vétérans 2
318 MOURANT FRANCK 631 2:03:21 10,21 5:52 107 Séniors
319 CLERDAIN CHRISTINE 1018 2:03:29 10,20 5:52 20 Ainées 1
320 REYNERS CHRISTIAN 813 2:04:12 10,14 5:54 90 Vétérans 1
321 HONNAY SOPHIE 971 2:04:22 10,13 5:55 21 Ainées 1
322 VANHAEREN GUY 660 2:04:41 10,11 5:56 56 Vétérans 2
323 FAFCHAMPS CHRISTINE 898 2:04:49 10,09 5:56 22 Ainées 1
324 MEINGUET LAURENT 610 2:04:49 10,09 5:56 91 Vétérans 1
325 SAFRONOVA JULIA 832 2:04:54 10,09 5:56 14 Dames
326 CASTELA CERRO DELPHINE 149 2:04:57 10,08 5:57 15 Dames
327 DEMONCEAU ISABELLE 901 2:05:10 10,07 5:57 14 Ainées 2
328 ONSSELS JEAN CLAUDE 872 2:05:46 10,02 5:59 16 Vétérans 3
329 LABILLE LAURENT 873 2:05:46 10,02 5:59 92 Vétérans 1
330 CHEBIL RAMI 139 2:06:06 9,99 6:00 108 Séniors
331 MASSART GERALDINE 964 2:06:16 9,98 6:00 23 Ainées 1
332 MICHOTTE CAROLINE 965 2:06:16 9,98 6:00 24 Ainées 1
333 HAUBRECHTS VALÉRIE 853 2:06:26 9,97 6:01 15 Ainées 2
334 NIELSEN MAY 882 2:06:34 9,95 6:01 16 Ainées 2
335 LICATA SALVATORE 862 2:06:42 9,94 6:02 17 Vétérans 3
336 LECLERCQ XAVIER 18 2:07:14 9,90 6:03 109 Séniors
337 BUSCICCHIO EUGENE 865 2:07:17 9,90 6:03 18 Vétérans 3
338 FOUARD MATIE 927 2:07:19 9,90 6:03 16 Dames
339 BLOEMERS KRISTEL 838 2:07:26 9,89 6:04 25 Ainées 1
340 SCHOONBRODT ALAIN 801 2:07:52 9,85 6:05 93 Vétérans 1
341 HUTSCHEMACKERS GUY 959 2:08:03 9,84 6:05 19 Vétérans 3
342 PIERLET VALERIE 897 2:09:12 9,75 6:09 26 Ainées 1
343 MINGUET XAVIER 1004 2:09:41 9,71 6:10 110 Séniors
344 ZANGERLE BRIGITTE 395 2:09:48 9,71 6:10 17 Ainées 2
345 SURETING ANTHONY 984 2:10:29 9,66 6:12 111 Séniors
346 MOMMER GUY 985 2:10:33 9,65 6:13 57 Vétérans 2
347 DUYSENS JEANNOT 255 2:11:02 9,62 6:14 20 Vétérans 3
348 LOUVIAUX CINDY 464 2:11:02 9,62 6:14 27 Ainées 1
349 SCHYNS ANDRÉ 909 2:11:02 9,62 6:14 58 Vétérans 2
350 CIANCABILLA LAURA 946 2:11:27 9,58 6:15 17 Dames
351 DELREZ SANDRA 238 2:11:50 9,56 6:16 18 Ainées 2
352 DOUBELS MYRIAM 326 2:11:51 9,56 6:16 19 Ainées 2
353 TOMBEUX CHRISTIAN 863 2:11:53 9,55 6:16 21 Vétérans 3
354 RODRIGUEZ PEDRO 860 2:11:54 9,55 6:16 59 Vétérans 2
355 ROEX JULIE 944 2:11:56 9,55 6:16 18 Dames
356 ZINZEN LAURENT 947 2:12:53 9,48 6:19 112 Séniors
357 QUERINJEAN CHRISTELLE 1039 2:13:21 9,45 6:21 28 Ainées 1
358 VIAENE BERNARD 805 2:13:28 9,44 6:21 2 Vétérans 4
359 LIEGEOIS JEAN LOUIS 806 2:13:28 9,44 6:21 22 Vétérans 3
360 BURLEON QUENTIN 875 2:13:52 9,41 6:22 113 Séniors
361 NELIS BENOIT 820 2:14:05 9,40 6:23 94 Vétérans 1
362 COLSOUL ADRIEN 1044 2:15:00 9,33 6:25 114 Séniors
363 WERY ANNE-MARIE 777 2:15:08 9,32 6:26 20 Ainées 2
364 JONLET LIONEL 13 2:15:19 9,31 6:26 115 Séniors
365 VAN LAAR CHRISTINE 652 2:15:27 9,30 6:27 21 Ainées 2
366 PIEROT GUY 910 2:16:01 9,26 6:28 23 Vétérans 3
367 LOVENBERG GUY 465 2:16:19 9,24 6:29 60 Vétérans 2
368 MAWET REMY 1034 2:17:00 9,20 6:31 116 Séniors
369 ANSON JULIE 1040 2:17:20 9,17 6:32 19 Dames
370 LEJEUNE CHRISTIAN 804 2:17:22 9,17 6:32 24 Vétérans 3
371 NOIRFALISE CECILE 523 2:17:47 9,14 6:33 29 Ainées 1
372 SQUELIN MICHELE 617 2:18:40 9,09 6:36 30 Ainées 1
373 SARLET CHARLOTTE 906 2:19:10 9,05 6:37 20 Dames
374 CARABIN DOMINIQUE 893 2:21:18 8,92 6:43 2 Ainées 3
375 BOUHON MICHEL 104 2:21:41 8,89 6:44 61 Vétérans 2
376 HERCOT JEAN 1036 2:22:44 8,83 6:47 62 Vétérans 2